Iliamna, AK

8:10 PM AKDT on April 26, 2017 (GMT -0800)
Iliamna

Weather History for PAIL - February, 2013

Change the Weather History Date:

Thursday, February 14, 2013

  Actual Average Record
Temperature  
Mean Temperature 28 °F -  
Max Temperature 36 °F 27 °F 49 °F (1986)
Min Temperature 19 °F 14 °F -21 °F (1964)
Degree Days  
Heating Degree Days 38    
Moisture  
Dew Point 28 °F    
Average Humidity 92    
Maximum Humidity 100    
Minimum Humidity 71    
Precipitation  
Precipitation 0.03 in - - ()
Sea Level Pressure  
Sea Level Pressure 29.39 in    
Wind  
Wind Speed 11 mph (SSW)    
Max Wind Speed 20 mph    
Max Gust Speed 25 mph    
Visibility 6 miles    
Events Rain , Snow    
Averages and records for this station are not official NWS values.
T = Trace of Precipitation, MM = Missing Value Source: NWS Daily Summary

Daily Weather History Graph

Daily Weather History Graph

Search for Another Location

Airport or City:

Trip Planner

Search our weather history database for the weather conditions in past years. The results will help you decide how hot, cold, wet, or windy it might be!

Date:

Astronomy

Feb. 14, 2013 Rise Set
Actual Time 8:58 AM AKST 6:10 PM AKST
Civil Twilight 8:14 AM AKST 6:54 PM AKST
Nautical Twilight 7:26 AM AKST 7:42 PM AKST
Astronomical Twilight 6:38 AM AKST 8:30 PM AKST
Moon 9:41 AM AKST (2/14) No Moon Set
Length of Visible Light 10h 39m
Length of Day
9h 12m
Waxing Crescent, 23% of the Moon is Illuminated
Feb 14
Waxing Crescent
Feb 17
First Quarter
Feb 25
Full
Mar 4
Last Quarter
Mar 11
New

Hourly Weather History & Observations

Time (AKST) Temp. Windchill Dew Point Humidity Pressure Visibility Wind Dir Wind Speed Gust Speed Precip Events Conditions
12:53 AM 35.1 °F 25.5 °F 28.0 °F 76% 29.42 in 10.0 mi East 15.0 mph 23.0 mph N/A   Mostly Cloudy
1:53 AM 36.0 °F 26.3 °F 28.9 °F 76% 29.41 in 10.0 mi East 16.1 mph 25.3 mph N/A   Overcast
3:53 AM 36.0 °F 27.1 °F 30.9 °F 82% 29.39 in 10.0 mi East 13.8 mph - 0.00 in   Overcast
4:53 AM 36.0 °F 28.0 °F 30.9 °F 82% 29.36 in 10.0 mi East 11.5 mph - N/A   Overcast
5:53 AM 36.0 °F 27.1 °F 30.9 °F 82% 29.34 in 10.0 mi East 13.8 mph 21.9 mph N/A   Overcast
6:53 AM 35.1 °F 26.9 °F 32.0 °F 89% 29.32 in 10.0 mi East 11.5 mph - N/A   Overcast
7:53 AM 36.0 °F 29.0 °F 32.0 °F 86% 29.31 in 10.0 mi ENE 9.2 mph - N/A   Overcast
8:53 AM 35.1 °F 29.3 °F 32.0 °F 89% 29.30 in 10.0 mi NE 6.9 mph - N/A   Overcast
9:53 AM 34.0 °F 26.6 °F 33.1 °F 96% 29.29 in 10.0 mi North 9.2 mph - 0.00 in Rain Light Rain
10:28 AM 33.8 °F 25.8 °F 33.8 °F 100% 29.27 in 10.0 mi North 10.4 mph - 0.00 in Rain Light Rain
10:53 AM 34.0 °F 26.0 °F 33.1 °F 96% 29.28 in 10.0 mi North 10.4 mph - 0.00 in Rain Light Rain
11:01 AM 33.8 °F 26.4 °F 33.8 °F 100% 29.27 in 10.0 mi North 9.2 mph - 0.00 in Rain Light Rain
11:53 AM 36.0 °F 29.6 °F 32.0 °F 86% 29.27 in 10.0 mi North 8.1 mph - 0.00 in   Overcast
12:51 PM 37.4 °F 32.1 °F 30.2 °F 75% 29.28 in 9.0 mi North 6.9 mph - 0.00 in Snow Light Snow
12:53 PM 37.0 °F 31.6 °F 30.9 °F 79% 29.29 in 8.0 mi North 6.9 mph - 0.00 in Snow Light Snow
1:53 PM 36.0 °F - 32.0 °F 86% 29.30 in 10.0 mi Calm Calm - 0.00 in Rain , Snow Light Rain
2:53 PM 34.0 °F 29.8 °F 34.0 °F 100% 29.33 in 4.0 mi SSW 4.6 mph - 0.01 in Rain , Snow Light Rain
3:10 PM 33.8 °F 29.6 °F 33.8 °F 100% 29.32 in 3.0 mi SSW 4.6 mph - 0.00 in Rain , Snow Light Snow
3:13 PM 33.8 °F 29.6 °F 33.8 °F 100% 29.32 in 2.0 mi SSW 4.6 mph - 0.00 in Rain , Snow Light Snow
3:17 PM 33.8 °F 30.8 °F 33.8 °F 100% 29.32 in 1.0 mi SSW 3.5 mph - 0.01 in Snow Light Snow
3:53 PM 33.1 °F 28.7 °F 33.1 °F 100% 29.34 in 1.0 mi South 4.6 mph - 0.02 in Snow Light Snow
4:18 PM 33.8 °F 28.6 °F 33.8 °F 100% 29.34 in 1.5 mi SSW 5.8 mph - 0.01 in Snow Light Snow
4:27 PM 33.8 °F 26.4 °F 33.8 °F 100% 29.34 in 1.0 mi SSW 9.2 mph - 0.01 in Snow Light Snow
4:40 PM 33.8 °F 27.0 °F 33.8 °F 100% 29.35 in 1.5 mi SW 8.1 mph - 0.01 in Snow Light Snow
4:53 PM 33.1 °F 25.5 °F 33.1 °F 100% 29.37 in 1.0 mi SSW 9.2 mph - 0.01 in Snow Light Snow
5:00 PM 33.8 °F 26.4 °F 33.8 °F 100% 29.36 in 1.0 mi SW 9.2 mph - 0.00 in Snow Light Snow
5:32 PM 28.4 °F 15.8 °F 28.4 °F 100% 29.38 in 1.5 mi SSW 18.4 mph 25.3 mph 0.00 in Snow Light Snow
5:44 PM 28.4 °F 15.4 °F 26.6 °F 93% 29.39 in 1.5 mi SW 19.6 mph 25.3 mph 0.00 in Snow Light Snow
5:53 PM 27.0 °F 14.7 °F 26.1 °F 96% 29.41 in 1.5 mi SW 16.1 mph 25.3 mph 0.00 in Snow Light Snow
6:06 PM 26.6 °F 15.2 °F 26.6 °F 100% 29.40 in 2.0 mi SW 13.8 mph 23.0 mph 0.00 in Snow Light Snow
6:08 PM 26.6 °F 15.2 °F 26.6 °F 100% 29.41 in 3.0 mi SW 13.8 mph 20.7 mph 0.00 in   Overcast
6:53 PM 25.0 °F 14.8 °F 24.1 °F 96% 29.46 in 7.0 mi SSW 10.4 mph - 0.00 in   Overcast
7:21 PM 24.8 °F 16.1 °F 23.0 °F 93% 29.48 in 10.0 mi SSW 8.1 mph - N/A   Overcast
7:53 PM 21.9 °F 10.4 °F 21.0 °F 96% 29.52 in 10.0 mi SW 11.5 mph - N/A   Overcast
8:04 PM 21.2 °F 9.5 °F 19.4 °F 93% 29.51 in 10.0 mi SW 11.5 mph - N/A   Overcast
8:53 PM 21.0 °F 10.6 °F 19.0 °F 92% 29.57 in 10.0 mi SW 9.2 mph - N/A   Overcast
9:53 PM 19.9 °F 10.1 °F 18.0 °F 92% 29.60 in 6.0 mi WSW 8.1 mph - 0.00 in Snow Light Snow
10:17 PM 19.4 °F 8.6 °F 17.6 °F 93% 29.60 in 2.5 mi SW 9.2 mph - 0.00 in Snow Light Snow
10:24 PM 19.4 °F 9.5 °F 17.6 °F 93% 29.60 in 3.0 mi SW 8.1 mph - 0.00 in Snow Light Snow
10:53 PM 19.9 °F 12.1 °F 18.0 °F 92% 29.64 in 7.0 mi SW 5.8 mph - 0.00 in Snow Light Snow
11:53 PM 19.9 °F 10.1 °F 14.0 °F 78% 29.67 in 10.0 mi West 8.1 mph - 0.00 in   Mostly Cloudy